• In Deutschland
  • Länderverzeichnis
  • Für 7 Tage
  • Wassertemperatur
  • Satellitenkarten
  • Wetterkarte
  • Widgets
  • user-avatar
    Anmelden

    Stündliche Wetter Punta Gorda

    Heute, 20 November, Montag

    Zeit Temperatur Niederschläge Wind Luftdruck Luftfeuchtigkeit
    00:00 +24°C° 0,8 mm 1 m/S 761 mmHg 92%
    01:00 +23°C° 0,2 mm 1 m/S 761 mmHg 92%
    02:00 +23°C° 0,2 mm 1 m/S 761 mmHg 93%
    03:00 +23°C° 0,2 mm 1 m/S 761 mmHg 93%
    04:00 +23°C° 0,4 mm 2 m/S 761 mmHg 92%
    05:00 +23°C° 0,4 mm 2 m/S 761 mmHg 92%
    06:00 +23°C° 0,4 mm 2 m/S 762 mmHg 92%
    07:00 +24°C° 0,3 mm 3 m/S 762 mmHg 87%
    08:00 +25°C° 0,3 mm 3 m/S 762 mmHg 83%
    09:00 +26°C° 0,3 mm 3 m/S 763 mmHg 78%
    10:00 +27°C° 0,3 mm 3 m/S 762 mmHg 76%
    11:00 +28°C° 0,3 mm 2 m/S 762 mmHg 73%
    12:00 +29°C° 0,3 mm 2 m/S 761 mmHg 70%
    13:00 +29°C° 0,5 mm 2 m/S 761 mmHg 71%
    14:00 +29°C° 0,5 mm 1 m/S 760 mmHg 72%
    15:00 +29°C° 0,5 mm 1 m/S 759 mmHg 73%
    16:00 +27°C° 0,4 mm 1 m/S 759 mmHg 79%
    17:00 +24°C° 0,4 mm 0 m/S 759 mmHg 86%
    18:00 +22°C° 0,4 mm 0 m/S 760 mmHg 92%
    19:00 +22°C° 0,2 mm 0 m/S 760 mmHg 93%
    20:00 +22°C° 0,2 mm 0 m/S 761 mmHg 94%
    21:00 +22°C° 0,2 mm 0 m/S 761 mmHg 95%
    22:00 +23°C° 0,1 mm 1 m/S 761 mmHg 95%
    23:00 +23°C° 0,1 mm 1 m/S 761 mmHg 95%

    Morgen, 21 November, Dienstag

    Zeit Temperatur Niederschläge Wind Luftdruck Luftfeuchtigkeit
    00:00 +23°C° 0,1 mm 1 m/S 761 mmHg 96%
    01:00 +23°C° 0,2 mm 1 m/S 760 mmHg 96%
    02:00 +23°C° 0,2 mm 1 m/S 760 mmHg 96%
    03:00 +23°C° 0,2 mm 1 m/S 760 mmHg 96%
    04:00 +22°C° 0 mm 1 m/S 760 mmHg 96%
    05:00 +22°C° 0 mm 1 m/S 760 mmHg 96%
    06:00 +22°C° 0 mm 1 m/S 760 mmHg 96%
    07:00 +24°C° 0 mm 1 m/S 760 mmHg 87%
    08:00 +26°C° 0 mm 1 m/S 761 mmHg 79%
    09:00 +28°C° 0 mm 1 m/S 761 mmHg 70%
    10:00 +30°C° 0 mm 1 m/S 760 mmHg 64%
    11:00 +31°C° 0 mm 1 m/S 760 mmHg 58%
    12:00 +31°C° 0 mm 0 m/S 759 mmHg 51%
    13:00 +32°C° 0 mm 1 m/S 758 mmHg 52%
    14:00 +32°C° 0 mm 1 m/S 757 mmHg 54%
    15:00 +32°C° 0 mm 1 m/S 757 mmHg 55%
    16:00 +30°C° 0 mm 2 m/S 757 mmHg 63%
    17:00 +28°C° 0 mm 2 m/S 757 mmHg 72%
    18:00 +26°C° 0 mm 2 m/S 758 mmHg 80%
    19:00 +26°C° 0 mm 2 m/S 759 mmHg 84%
    20:00 +25°C° 0 mm 2 m/S 759 mmHg 87%
    21:00 +24°C° 0 mm 2 m/S 760 mmHg 91%
    22:00 +24°C° 0 mm 1 m/S 760 mmHg 92%
    23:00 +24°C° 0 mm 1 m/S 760 mmHg 94%

    übermorgen, 22 November, Mittwoch

    Zeit Temperatur Niederschläge Wind Luftdruck Luftfeuchtigkeit
    00:00 +23°C° 0 mm 1 m/S 760 mmHg 95%
    01:00 +23°C° 0 mm 1 m/S 759 mmHg 96%
    02:00 +23°C° 0 mm 1 m/S 759 mmHg 96%
    03:00 +23°C° 0 mm 1 m/S 759 mmHg 97%
    04:00 +23°C° 0,3 mm 1 m/S 759 mmHg 97%
    05:00 +23°C° 0,3 mm 1 m/S 759 mmHg 96%
    06:00 +23°C° 0,3 mm 1 m/S 759 mmHg 96%
    07:00 +25°C° 0,5 mm 1 m/S 760 mmHg 89%
    08:00 +27°C° 0,5 mm 1 m/S 760 mmHg 81%
    09:00 +29°C° 0,5 mm 1 m/S 761 mmHg 74%
    10:00 +30°C° 0,5 mm 1 m/S 760 mmHg 69%
    11:00 +31°C° 0,5 mm 1 m/S 760 mmHg 65%
    12:00 +30°C° 0,5 mm 0 m/S 759 mmHg 61%
    13:00 +32°C° 0,2 mm 1 m/S 758 mmHg 61%
    14:00 +32°C° 0,2 mm 1 m/S 758 mmHg 62%
    15:00 +31°C° 0,2 mm 1 m/S 757 mmHg 63%
    16:00 +29°C° 0,2 mm 1 m/S 758 mmHg 70%
    17:00 +28°C° 0,2 mm 1 m/S 758 mmHg 77%
    18:00 +26°C° 0,2 mm 1 m/S 759 mmHg 84%
    19:00 +25°C° 0,5 mm 1 m/S 760 mmHg 87%
    20:00 +24°C° 0,5 mm 1 m/S 760 mmHg 91%
    21:00 +24°C° 0,5 mm 1 m/S 761 mmHg 95%
    22:00 +23°C° 0,4 mm 1 m/S 761 mmHg 95%
    23:00 +23°C° 0,4 mm 1 m/S 761 mmHg 95%

    23 November, Donnerstag

    Zeit Temperatur Niederschläge Wind Luftdruck Luftfeuchtigkeit
    00:00 +23°C° 0,4 mm 2 m/S 761 mmHg 96%
    01:00 +21°C° 0 mm 2 m/S 761 mmHg 96%
    02:00 +21°C° 0 mm 2 m/S 761 mmHg 96%
    03:00 +21°C° 0 mm 2 m/S 760 mmHg 96%
    04:00 +21°C° 0 mm 2 m/S 761 mmHg 96%
    05:00 +21°C° 0 mm 2 m/S 761 mmHg 96%
    06:00 +21°C° 0 mm 2 m/S 761 mmHg 96%
    07:00 +23°C° 0 mm 2 m/S 762 mmHg 88%
    08:00 +25°C° 0 mm 3 m/S 762 mmHg 80%
    09:00 +26°C° 0 mm 3 m/S 762 mmHg 72%
    10:00 +27°C° 0 mm 3 m/S 762 mmHg 66%
    11:00 +28°C° 0 mm 3 m/S 761 mmHg 61%
    12:00 +29°C° 0 mm 3 m/S 760 mmHg 56%
    13:00 +30°C° 0 mm 2 m/S 760 mmHg 54%
    14:00 +30°C° 0 mm 2 m/S 759 mmHg 53%
    15:00 +30°C° 0 mm 2 m/S 758 mmHg 51%
    16:00 +29°C° 0 mm 2 m/S 759 mmHg 59%
    17:00 +27°C° 0 mm 2 m/S 759 mmHg 66%
    18:00 +25°C° 0 mm 2 m/S 760 mmHg 74%
    19:00 +25°C° 0,1 mm 2 m/S 760 mmHg 76%
    20:00 +24°C° 0,1 mm 2 m/S 761 mmHg 79%
    21:00 +24°C° 0,1 mm 2 m/S 762 mmHg 81%
    22:00 +23°C° 0 mm 2 m/S 761 mmHg 83%
    23:00 +22°C° 0 mm 3 m/S 761 mmHg 84%

    24 November, Freitag

    Zeit Temperatur Niederschläge Wind Luftdruck Luftfeuchtigkeit
    00:00 +22°C° 0 mm 3 m/S 761 mmHg 86%
    01:00 +21°C° 0 mm 3 m/S 761 mmHg 86%
    02:00 +21°C° 0 mm 3 m/S 761 mmHg 87%
    03:00 +21°C° 0 mm 2 m/S 761 mmHg 88%
    04:00 +21°C° 0 mm 2 m/S 761 mmHg 88%
    05:00 +20°C° 0 mm 2 m/S 762 mmHg 89%
    06:00 +20°C° 0 mm 2 m/S 762 mmHg 90%
    07:00 +23°C° 0 mm 2 m/S 762 mmHg 82%
    08:00 +25°C° 0 mm 2 m/S 763 mmHg 74%
    09:00 +26°C° 0 mm 2 m/S 763 mmHg 66%
    10:00 +27°C° 0 mm 2 m/S 762 mmHg 62%
    11:00 +28°C° 0 mm 2 m/S 762 mmHg 59%
    12:00 +29°C° 0 mm 2 m/S 761 mmHg 56%
    13:00 +29°C° 0 mm 2 m/S 760 mmHg 55%
    14:00 +29°C° 0 mm 2 m/S 760 mmHg 54%
    15:00 +30°C° 0 mm 2 m/S 759 mmHg 54%
    16:00 +28°C° 0 mm 2 m/S 760 mmHg 62%
    17:00 +26°C° 0 mm 2 m/S 760 mmHg 71%
    18:00 +24°C° 0 mm 2 m/S 761 mmHg 80%
    19:00 +23°C° 0,1 mm 2 m/S 761 mmHg 83%
    20:00 +23°C° 0,1 mm 2 m/S 762 mmHg 86%
    21:00 +21°C° 0,1 mm 2 m/S 763 mmHg 89%
    22:00 +21°C° 0,1 mm 2 m/S 762 mmHg 89%
    23:00 +21°C° 0,1 mm 2 m/S 762 mmHg 90%

    25 November, Samstag

    Zeit Temperatur Niederschläge Wind Luftdruck Luftfeuchtigkeit
    00:00 +20°C° 0,1 mm 2 m/S 762 mmHg 91%
    01:00 +20°C° 0,1 mm 2 m/S 762 mmHg 91%
    02:00 +20°C° 0,1 mm 2 m/S 762 mmHg 91%
    03:00 +20°C° 0,1 mm 2 m/S 762 mmHg 91%
    04:00 +19°C° 0 mm 2 m/S 762 mmHg 91%
    05:00 +19°C° 0 mm 2 m/S 762 mmHg 92%
    06:00 +19°C° 0 mm 2 m/S 763 mmHg 93%
    07:00 +21°C° 0 mm 2 m/S 763 mmHg 83%
    08:00 +24°C° 0 mm 2 m/S 763 mmHg 73%
    09:00 +26°C° 0 mm 2 m/S 764 mmHg 63%
    10:00 +27°C° 0 mm 2 m/S 763 mmHg 57%
    11:00 +29°C° 0 mm 1 m/S 762 mmHg 51%
    12:00 +30°C° 0 mm 1 m/S 762 mmHg 46%
    13:00 +30°C° 0 mm 1 m/S 761 mmHg 46%
    14:00 +30°C° 0 mm 1 m/S 761 mmHg 46%
    15:00 +30°C° 0 mm 1 m/S 760 mmHg 47%
    16:00 +28°C° 0 mm 2 m/S 761 mmHg 56%
    17:00 +26°C° 0 mm 2 m/S 761 mmHg 66%
    18:00 +24°C° 0 mm 2 m/S 762 mmHg 75%
    19:00 +23°C° 0 mm 1 m/S 762 mmHg 79%
    20:00 +23°C° 0 mm 1 m/S 763 mmHg 83%
    21:00 +22°C° 0 mm 1 m/S 763 mmHg 86%
    22:00 +22°C° 0 mm 1 m/S 763 mmHg 87%
    23:00 +21°C° 0 mm 1 m/S 763 mmHg 87%
    Mehr zeigen